Regional Weather Roundup
Issued by NWS Sioux Falls, SD

Home | Current Version | Previous Version | Graphics & Text | Print | Product List | Glossary Off
Versions: 1 2 3 4 5 6 7 8 9 10 11 12 13 14 15 16 17 18 19 20 21 22 23 24 25 26 27 28 29 30 31 32 33 34 35 36 37 38 39 40 41 42 43 44 45 46 47 48 49 50

000
ASUS43 KFSD 011210
RWRFSD

WEATHER ROUNDUP FOR SE SOUTH DAKOTA/SW MINNESOTA/NW IOWA
NATIONAL WEATHER SERVICE SIOUX FALLS SD
700 AM CDT SAT AUG 01 2015

NOTE: "FAIR" INDICATES FEW OR NO CLOUDS BELOW 12,000 FEET WITH NO
SIGNIFICANT WEATHER AND OR OBSTRUCTIONS TO VISIBILITY.


SDZ038>040-050-052>070-011300-
SOUTHEAST SOUTH DAKOTA

CITY           SKY/WX    TMP DP  RH WIND       PRES   REMARKS
BROOKINGS      CLEAR     63  57  82 CALM      30.03S
CHAMBERLAIN    MOCLDY    66  62  87 S5        29.97F
6HR MIN TEMP:  61; 6HR MAX TEMP:  68;

HURON          CLEAR     62  61  96 SE6       29.97F
6HR MIN TEMP:  59; 6HR MAX TEMP:  70;

MADISON        FAIR      64  64 100 SW6       30.02S
MITCHELL       CLEAR     61  61 100 SE5       30.00R
6HR MIN TEMP:  60; 6HR MAX TEMP:  72;

SIOUX FALLS    PTCLDY    65  63  93 NW3       30.02R
6HR MIN TEMP:  62; 6HR MAX TEMP:  72;

WINNER         FAIR      81  49  32 W23G33    30.00R
YANKTON        PTCLDY    64  63  94 SW9       30.01R
$$

MNZ071-072-080-081-089-090-097-098-011300-
SOUTHWEST MINNESOTA

CITY           SKY/WX    TMP DP  RH WIND       PRES   REMARKS
FAIRMONT       CLEAR     64  55  72 W5        30.00R
JACKSON        CLEAR     63  61  94 W3        30.02R
LUVERNE        CLEAR     61  59  94 CALM      30.02R
MARSHALL       CLEAR     63  57  82 W7        30.00F
6HR MIN TEMP:  61; 6HR MAX TEMP:  70;

MONTEVIDEO     CLEAR     63  57  82 CALM      29.99F
PIPESTONE      CLEAR     63  61  94 CALM      30.03R
REDWOOD FALLS  CLEAR     62  59  90 W6        29.97F
TRACY          CLEAR     64  63  94 CALM      30.01S
WINDOM         CLEAR     63  59  88 CALM      30.01S
WORTHINGTON    CLEAR     63  57  82 W3        30.03R
$$

IAZ001>003-012>014-020>022-031-032-NEZ013-014-SDZ071-011300-
NORTHWEST IOWA

CITY           SKY/WX    TMP DP  RH WIND       PRES   REMARKS
CHEROKEE       CLEAR     58  58 100 CALM      30.02S
DENISON        CLEAR     64  64 100 CALM      30.03R
ESTHERVILLE    CLEAR     63  61  93 SW3       30.01R
LE MARS        CLEAR     61  61 100 SW5       30.03R
ORANGE CITY    CLEAR     63  61  94 S3        30.02R
SHELDON        CLEAR     64  63  94 S6        30.00R
SIOUX CITY     FOG       65  63  93 S3        30.03R VSB 1/4
6HR MIN TEMP:  62; 6HR MAX TEMP:  71;

SPENCER        CLEAR     65  60  84 CALM      30.01F
6HR MIN TEMP:  60; 6HR MAX TEMP:  65;

STORM LAKE     CLEAR     64  63  94 SW8       30.04R
$$

ABBREVIATIONS USED IN REMARKS
   TC - TEMPERATURE IN CELSIUS
  WCI - WIND CHILL INDEX
   HX - HEAT INDEX
  VSB - VISIBILITY




USA.gov is the U.S. government's official web portal to all federal, state and local government web resources and services.